| time (UTC) | temp F | wind direction | speed MPH | gust MPH | rain 1hr in | rain 24hr in | rain mn in | humidity % | barometer mb |
| 20260510123142 | 67 | 246 | 1.0 | 3.0 | 0.00 | 0.00 | 0.00 | 17 | 1018.5 |
| 20260510122641 | 67 | 250 | 1.0 | 2.0 | 0.00 | 0.00 | 0.00 | 17 | 1018.4 |
| 20260510122142 | 67 | 263 | 1.0 | 2.0 | 0.00 | 0.00 | 0.00 | 18 | 1018.3 |
| 20260510121642 | 67 | 255 | 2.0 | 4.0 | 0.00 | 0.00 | 0.00 | 19 | 1018.3 |
| 20260510121142 | 67 | 259 | 2.0 | 4.0 | 0.00 | 0.00 | 0.00 | 19 | 1018.3 |
| 20260510120641 | 67 | 269 | 2.0 | 4.0 | 0.00 | 0.00 | 0.00 | 19 | 1018.3 |
| 20260510120142 | 66 | 273 | 1.0 | 4.0 | 0.00 | 0.00 | 0.00 | 20 | 1018.2 |
| 20260510115642 | 66 | 239 | 0.0 | 2.0 | 0.00 | 0.00 | 0.00 | 20 | 1018.2 |
| 20260510115142 | 66 | 249 | 0.0 | 2.0 | 0.00 | 0.00 | 0.00 | 20 | 1018.2 |
| 20260510114641 | 65 | 256 | 1.0 | 2.0 | 0.00 | 0.00 | 0.00 | 21 | 1018.3 |
| 20260510114142 | 65 | 261 | 1.0 | 2.0 | 0.00 | 0.00 | 0.00 | 21 | 1018.3 |
| 20260510113643 | 65 | 256 | 1.0 | 2.0 | 0.00 | 0.00 | 0.00 | 21 | 1018.2 |
| 20260510113142 | 65 | 254 | 1.0 | 2.0 | 0.00 | 0.00 | 0.00 | 20 | 1018.1 |
| 20260510112641 | 66 | 262 | 1.0 | 2.0 | 0.00 | 0.00 | 0.00 | 20 | 1018.1 |
| 20260510112141 | 67 | 270 | 0.0 | 2.0 | 0.00 | 0.00 | 0.00 | 19 | 1018.0 |
| 20260510111641 | 67 | 265 | 1.0 | 2.0 | 0.00 | 0.00 | 0.00 | 19 | 1018.0 |
| 20260510111142 | 68 | 250 | 1.0 | 2.0 | 0.00 | 0.00 | 0.00 | 19 | 1017.9 |
| 20260510110643 | 68 | 209 | 1.0 | 2.0 | 0.00 | 0.00 | 0.00 | 19 | 1017.9 |
| 20260510110142 | 67 | 185 | 1.0 | 4.0 | 0.00 | 0.00 | 0.00 | 20 | 1017.9 |
| 20260510105641 | 67 | 185 | 2.0 | 4.0 | 0.00 | 0.00 | 0.00 | 20 | 1017.9 |
| 20260510105142 | 67 | 164 | 2.0 | 3.0 | 0.00 | 0.00 | 0.00 | 20 | 1017.9 |
| 20260510104642 | 67 | 192 | 1.0 | 3.0 | 0.00 | 0.00 | 0.00 | 20 | 1017.7 |
| 20260510104141 | 68 | 177 | 0.0 | 3.0 | 0.00 | 0.00 | 0.00 | 19 | 1017.6 |
| 20260510103641 | 69 | 256 | 0.0 | 0.0 | 0.00 | 0.00 | 0.00 | 18 | 1017.6 |
| 20260510103142 | 70 | 256 | 0.0 | 1.0 | 0.00 | 0.00 | 0.00 | 17 | 1017.5 |
| 20260510102139 | 71 | 255 | 1.0 | 2.0 | 0.00 | 0.00 | 0.00 | 17 | 1017.3 |
| 20260510101139 | 70 | 257 | 1.0 | 3.0 | 0.00 | 0.00 | 0.00 | 18 | 1017.3 |
| 20260510100640 | 70 | 253 | 1.0 | 3.0 | 0.00 | 0.00 | 0.00 | 18 | 1017.3 |
| 20260510100139 | 70 | 258 | 1.0 | 3.0 | 0.00 | 0.00 | 0.00 | 18 | 1017.3 |
| 20260510095640 | 70 | 258 | 1.0 | 2.0 | 0.00 | 0.00 | 0.00 | 18 | 1017.4 |
| 20260510091140 | 71 | 257 | 2.0 | 3.0 | 0.00 | 0.00 | 0.00 | 18 | 1017.3 |
| 20260510090639 | 71 | 260 | 1.0 | 3.0 | 0.00 | 0.00 | 0.00 | 17 | 1017.2 |
| 20260510085640 | 72 | 252 | 2.0 | 4.0 | 0.00 | 0.00 | 0.00 | 17 | 1017.2 |
| 20260510085140 | 71 | 213 | 2.0 | 5.0 | 0.00 | 0.00 | 0.00 | 17 | 1017.2 |
| 20260510084640 | 71 | 188 | 2.0 | 5.0 | 0.00 | 0.00 | 0.00 | 18 | 1017.2 |
| 20260510084139 | 70 | 232 | 1.0 | 3.0 | 0.00 | 0.00 | 0.00 | 18 | 1017.3 |
| 20260510083639 | 70 | 250 | 1.0 | 3.0 | 0.00 | 0.00 | 0.00 | 18 | 1017.5 |
| 20260510083140 | 69 | 209 | 1.0 | 3.0 | 0.00 | 0.00 | 0.00 | 18 | 1017.5 |
| 20260510082636 | 70 | 256 | 1.0 | 3.0 | 0.00 | 0.00 | 0.00 | 18 | 1017.6 |
| 20260510081635 | 70 | 270 | 0.0 | 2.0 | 0.00 | 0.00 | 0.00 | 18 | 1017.5 |
| 20260510081136 | 72 | 270 | 1.0 | 6.0 | 0.00 | 0.00 | 0.00 | 17 | 1017.4 |
| 20260510080636 | 73 | 324 | 1.0 | 6.0 | 0.00 | 0.00 | 0.00 | 16 | 1017.2 |
| 20260510074631 | 74 | 180 | 1.0 | 2.0 | 0.00 | 0.00 | 0.00 | 16 | 1016.5 |
| 20260510073631 | 74 | 203 | 2.0 | 3.0 | 0.00 | 0.00 | 0.00 | 16 | 1016.6 |
| 20260510073131 | 73 | 210 | 2.0 | 5.0 | 0.00 | 0.00 | 0.00 | 16 | 1016.6 |
| 20260510072131 | 72 | 188 | 2.0 | 4.0 | 0.00 | 0.00 | 0.00 | 17 | 1016.8 |
| 20260510071629 | 72 | 206 | 1.0 | 2.0 | 0.00 | 0.00 | 0.00 | 17 | 1016.9 |
| 20260510071127 | 72 | 196 | 1.0 | 2.0 | 0.00 | 0.00 | 0.00 | 17 | 1016.9 |
| 20260510070626 | 72 | 265 | 1.0 | 2.0 | 0.00 | 0.00 | 0.00 | 17 | 1017.1 |
| 20260510070126 | 73 | 265 | 0.0 | 2.0 | 0.00 | 0.00 | 0.00 | 16 | 1016.9 |
| 20260510065623 | 73 | 323 | 0.0 | 0.0 | 0.00 | 0.00 | 0.00 | 16 | 1017.1 |
| 20260510065122 | 74 | 5 | 0.0 | 2.0 | 0.00 | 0.00 | 0.00 | 16 | 1016.8 |
| 20260510064621 | 74 | 346 | 0.0 | 2.0 | 0.00 | 0.00 | 0.00 | 16 | 1016.7 |
| 20260510064120 | 74 | 115 | 0.0 | 3.0 | 0.00 | 0.00 | 0.00 | 16 | 1016.4 |
| 20260510063618 | 74 | 121 | 1.0 | 3.0 | 0.00 | 0.00 | 0.00 | 16 | 1016.3 |
| 20260510063121 | 74 | 182 | 1.0 | 3.0 | 0.00 | 0.00 | 0.00 | 16 | 1016.3 |
| 20260510062616 | 75 | 170 | 1.0 | 3.0 | 0.00 | 0.00 | 0.00 | 15 | 1016.3 |
| 20260510062114 | 76 | 150 | 0.0 | 2.0 | 0.00 | 0.00 | 0.00 | 15 | 1016.4 |
| 20260510061614 | 77 | 146 | 0.0 | 1.0 | 0.00 | 0.00 | 0.00 | 14 | 1016.3 |
| 20260510061112 | 77 | 146 | 1.0 | 4.0 | 0.00 | 0.00 | 0.00 | 14 | 1016.4 |
| 20260510060612 | 78 | 146 | 1.0 | 4.0 | 0.00 | 0.00 | 0.00 | 13 | 1016.3 |
| 20260510060111 | 79 | 142 | 2.0 | 5.0 | 0.00 | 0.00 | 0.00 | 13 | 1016.2 |
| 20260510055608 | 80 | 187 | 2.0 | 5.0 | 0.00 | 0.00 | 0.00 | 12 | 1016.0 |
| 20260510055108 | 80 | 187 | 2.0 | 6.0 | 0.00 | 0.00 | 0.00 | 12 | 1016.0 |
| 20260510054609 | 80 | 208 | 2.0 | 6.0 | 0.00 | 0.00 | 0.00 | 12 | 1015.8 |
| 20260510054108 | 80 | 221 | 2.0 | 5.0 | 0.00 | 0.00 | 0.00 | 12 | 1015.8 |
| 20260510053608 | 80 | 246 | 2.0 | 5.0 | 0.00 | 0.00 | 0.00 | 12 | 1015.8 |
| 20260510053109 | 80 | 265 | 3.0 | 6.0 | 0.00 | 0.00 | 0.00 | 12 | 1015.8 |
| 20260510052608 | 80 | 199 | 3.0 | 6.0 | 0.00 | 0.00 | 0.00 | 12 | 1015.8 |
| 20260510052107 | 80 | 219 | 3.0 | 5.0 | 0.00 | 0.00 | 0.00 | 12 | 1015.8 |
| 20260510051106 | 80 | 244 | 3.0 | 7.0 | 0.00 | 0.00 | 0.00 | 12 | 1015.7 |
| 20260510050604 | 80 | 238 | 4.0 | 7.0 | 0.00 | 0.00 | 0.00 | 11 | 1015.8 |
| 20260510044602 | 81 | 239 | 4.0 | 8.0 | 0.00 | 0.00 | 0.00 | 11 | 1015.6 |
| 20260510043602 | 81 | 223 | 4.0 | 7.0 | 0.00 | 0.00 | 0.00 | 12 | 1015.6 |
| 20260510043103 | 81 | 200 | 4.0 | 8.0 | 0.00 | 0.00 | 0.00 | 12 | 1015.6 |
| 20260510042603 | 81 | 191 | 4.0 | 12.0 | 0.00 | 0.00 | 0.00 | 12 | 1015.5 |
| 20260510042100 | 81 | 214 | 5.0 | 12.0 | 0.00 | 0.00 | 0.00 | 12 | 1015.5 |
| 20260510041600 | 81 | 200 | 5.0 | 9.0 | 0.00 | 0.00 | 0.00 | 12 | 1015.4 |
| 20260510041100 | 81 | 232 | 5.0 | 8.0 | 0.00 | 0.00 | 0.00 | 12 | 1015.2 |
| 20260510040600 | 81 | 232 | 4.0 | 8.0 | 0.00 | 0.00 | 0.00 | 12 | 1015.1 |
| 20260510040100 | 81 | 231 | 4.0 | 8.0 | 0.00 | 0.00 | 0.00 | 12 | 1015.0 |
| 20260510035600 | 81 | 246 | 4.0 | 8.0 | 0.00 | 0.00 | 0.00 | 12 | 1015.0 |
| 20260510035100 | 82 | 209 | 4.0 | 8.0 | 0.00 | 0.00 | 0.00 | 12 | 1015.0 |
| 20260510034600 | 82 | 198 | 5.0 | 10.0 | 0.00 | 0.00 | 0.00 | 12 | 1014.9 |
| 20260510034058 | 82 | 194 | 5.0 | 10.0 | 0.00 | 0.00 | 0.00 | 12 | 1014.9 |
| 20260510033558 | 82 | 234 | 4.0 | 9.0 | 0.00 | 0.00 | 0.00 | 12 | 1014.8 |
| 20260510033058 | 82 | 213 | 4.0 | 9.0 | 0.00 | 0.00 | 0.00 | 12 | 1014.7 |
| 20260510032559 | 82 | 223 | 4.0 | 10.0 | 0.00 | 0.00 | 0.00 | 12 | 1014.7 |
| 20260510032057 | 82 | 210 | 5.0 | 10.0 | 0.00 | 0.00 | 0.00 | 12 | 1014.6 |
| 20260510031558 | 82 | 240 | 5.0 | 10.0 | 0.00 | 0.00 | 0.00 | 12 | 1014.6 |
| 20260510031058 | 82 | 259 | 4.0 | 8.0 | 0.00 | 0.00 | 0.00 | 12 | 1014.6 |
| 20260510030056 | 82 | 267 | 4.0 | 8.0 | 0.00 | 0.00 | 0.00 | 12 | 1014.4 |
| 20260510025056 | 82 | 263 | 4.0 | 7.0 | 0.00 | 0.00 | 0.00 | 12 | 1014.3 |
| 20260510024556 | 83 | 219 | 4.0 | 9.0 | 0.00 | 0.00 | 0.00 | 12 | 1014.2 |
| 20260510024056 | 83 | 249 | 4.0 | 9.0 | 0.00 | 0.00 | 0.00 | 12 | 1014.1 |
| 20260510023556 | 83 | 252 | 4.0 | 7.0 | 0.00 | 0.00 | 0.00 | 12 | 1014.0 |
| 20260510023056 | 83 | 215 | 4.0 | 8.0 | 0.00 | 0.00 | 0.00 | 12 | 1013.9 |
| 20260510022556 | 83 | 238 | 3.0 | 8.0 | 0.00 | 0.00 | 0.00 | 12 | 1013.9 |
| 20260510022057 | 83 | 214 | 3.0 | 7.0 | 0.00 | 0.00 | 0.00 | 12 | 1013.9 |
| 20260510021556 | 83 | 249 | 4.0 | 8.0 | 0.00 | 0.00 | 0.00 | 12 | 1013.8 |
| 20260510021056 | 83 | 222 | 3.0 | 8.0 | 0.00 | 0.00 | 0.00 | 12 | 1013.9 |
| 20260510020056 | 84 | 204 | 3.0 | 6.0 | 0.00 | 0.00 | 0.00 | 12 | 1013.8 |
| 20260510015556 | 84 | 226 | 3.0 | 6.0 | 0.00 | 0.00 | 0.00 | 12 | 1013.8 |
| 20260510015056 | 84 | 197 | 4.0 | 8.0 | 0.00 | 0.00 | 0.00 | 12 | 1013.7 |
| 20260510014556 | 84 | 199 | 4.0 | 8.0 | 0.00 | 0.00 | 0.00 | 12 | 1013.5 |
| 20260510014056 | 84 | 204 | 3.0 | 8.0 | 0.00 | 0.00 | 0.00 | 12 | 1013.5 |
| 20260510013556 | 84 | 230 | 3.0 | 7.0 | 0.00 | 0.00 | 0.00 | 11 | 1013.5 |
| 20260510013056 | 85 | 209 | 3.0 | 5.0 | 0.00 | 0.00 | 0.00 | 11 | 1013.4 |
| 20260510012556 | 85 | 203 | 2.0 | 5.0 | 0.00 | 0.00 | 0.00 | 11 | 1013.4 |
| 20260510012054 | 85 | 221 | 2.0 | 7.0 | 0.00 | 0.00 | 0.00 | 11 | 1013.4 |
| 20260510011052 | 86 | 221 | 2.0 | 5.0 | 0.00 | 0.00 | 0.00 | 11 | 1013.3 |
| 20260510010552 | 87 | 229 | 2.0 | 6.0 | 0.00 | 0.00 | 0.00 | 11 | 1013.3 |
| 20260510010053 | 87 | 234 | 2.0 | 6.0 | 0.00 | 0.00 | 0.00 | 11 | 1013.3 |
| 20260510005052 | 87 | 267 | 2.0 | 6.0 | 0.00 | 0.00 | 0.00 | 11 | 1013.2 |
| 20260510004548 | 88 | 242 | 3.0 | 7.0 | 0.00 | 0.00 | 0.00 | 10 | 1013.3 |
| 20260510004046 | 88 | 244 | 3.0 | 8.0 | 0.00 | 0.00 | 0.00 | 10 | 1013.3 |
| 20260510003546 | 89 | 257 | 2.0 | 8.0 | 0.00 | 0.00 | 0.00 | 10 | 1013.4 |
| 20260510002546 | 90 | 246 | 3.0 | 6.0 | 0.00 | 0.00 | 0.00 | 10 | 1013.3 |
| 20260510002047 | 90 | 321 | 2.0 | 6.0 | 0.00 | 0.00 | 0.00 | 10 | 1013.4 |
| 20260510000546 | 90 | 198 | 4.0 | 12.0 | 0.00 | 0.00 | 0.00 | 10 | 1013.4 |
| 20260510000044 | 89 | 210 | 4.0 | 12.0 | 0.00 | 0.00 | 0.00 | 10 | 1013.4 |
| 20260509235544 | 90 | 153 | 3.0 | 9.0 | 0.00 | 0.00 | 0.00 | 10 | 1013.3 |
| 20260509235044 | 90 | 204 | 3.0 | 9.0 | 0.00 | 0.00 | 0.00 | 9 | 1013.4 |
| 20260509234544 | 91 | 197 | 3.0 | 8.0 | 0.00 | 0.00 | 0.00 | 10 | 1013.4 |
| 20260509234044 | 91 | 255 | 3.0 | 8.0 | 0.00 | 0.00 | 0.00 | 9 | 1013.5 |
| 20260509233544 | 92 | 251 | 3.0 | 8.0 | 0.00 | 0.00 | 0.00 | 10 | 1013.4 |
| 20260509232538 | 93 | 244 | 3.0 | 9.0 | 0.00 | 0.00 | 0.00 | 9 | 1013.4 |
| 20260509232038 | 94 | 290 | 3.0 | 7.0 | 0.00 | 0.00 | 0.00 | 9 | 1013.4 |
| 20260509231538 | 93 | 275 | 3.0 | 7.0 | 0.00 | 0.00 | 0.00 | 9 | 1013.4 |
| 20260509231038 | 93 | 242 | 2.0 | 5.0 | 0.00 | 0.00 | 0.00 | 9 | 1013.4 |
| 20260509230035 | 93 | 139 | 3.0 | 7.0 | 0.00 | 0.00 | 0.00 | 9 | 1013.5 |
| 20260509225536 | 92 | 173 | 3.0 | 7.0 | 0.00 | 0.00 | 0.00 | 10 | 1013.4 |
| 20260509225036 | 92 | 133 | 3.0 | 8.0 | 0.00 | 0.00 | 0.00 | 11 | 1013.5 |
| 20260509224536 | 91 | 135 | 3.0 | 8.0 | 0.00 | 0.00 | 0.00 | 11 | 1013.5 |
| 20260509224039 | 90 | 129 | 3.0 | 7.0 | 0.00 | 0.00 | 0.00 | 12 | 1013.7 |
| 20260509223532 | 89 | 171 | 4.0 | 8.0 | 0.00 | 0.00 | 0.00 | 12 | 1013.8 |
| 20260509223032 | 88 | 140 | 4.0 | 8.0 | 0.00 | 0.00 | 0.00 | 12 | 1013.9 |
| 20260509222532 | 89 | 140 | 4.0 | 8.0 | 0.00 | 0.00 | 0.00 | 11 | 1014.0 |
| 20260509222035 | 90 | 204 | 4.0 | 11.0 | 0.00 | 0.00 | 0.00 | 10 | 1014.1 |
| 20260509221532 | 91 | 182 | 5.0 | 11.0 | 0.00 | 0.00 | 0.00 | 11 | 1014.1 |
| 20260509221032 | 91 | 188 | 6.0 | 11.0 | 0.00 | 0.00 | 0.00 | 11 | 1014.0 |
| 20260509220532 | 91 | 125 | 5.0 | 11.0 | 0.00 | 0.00 | 0.00 | 11 | 1014.0 |
| 20260509220031 | 90 | 134 | 4.0 | 10.0 | 0.00 | 0.00 | 0.00 | 12 | 1014.1 |
| 20260509215532 | 89 | 165 | 2.0 | 10.0 | 0.00 | 0.00 | 0.00 | 12 | 1014.3 |
| 20260509215033 | 89 | 150 | 0.0 | 2.0 | 0.00 | 0.00 | 0.00 | 12 | 1014.3 |
| 20260509214532 | 88 | 134 | 0.0 | 2.0 | 0.00 | 0.00 | 0.00 | 13 | 1014.4 |
| 20260509214032 | 87 | 134 | 3.0 | 6.0 | 0.00 | 0.00 | 0.00 | 11 | 1014.6 |
| 20260509213530 | 88 | 159 | 4.0 | 9.0 | 0.00 | 0.00 | 0.00 | 11 | 1014.8 |
| 20260509213028 | 89 | 190 | 2.0 | 9.0 | 0.00 | 0.00 | 0.00 | 11 | 1014.8 |
| 20260509212528 | 90 | 193 | 2.0 | 7.0 | 0.00 | 0.00 | 0.00 | 11 | 1014.8 |
| 20260509212028 | 91 | 167 | 3.0 | 7.0 | 0.00 | 0.00 | 0.00 | 11 | 1014.8 |
| 20260509211528 | 91 | 136 | 2.0 | 6.0 | 0.00 | 0.00 | 0.00 | 11 | 1014.8 |
| 20260509211028 | 89 | 126 | 2.0 | 4.0 | 0.00 | 0.00 | 0.00 | 11 | 1014.8 |
| 20260509210528 | 89 | 115 | 2.0 | 4.0 | 0.00 | 0.00 | 0.00 | 11 | 1014.9 |
| 20260509210026 | 90 | 104 | 1.0 | 3.0 | 0.00 | 0.00 | 0.00 | 11 | 1015.1 |
| 20260509205527 | 91 | 122 | 1.0 | 6.0 | 0.00 | 0.00 | 0.00 | 10 | 1015.2 |
| 20260509205024 | 91 | 101 | 2.0 | 6.0 | 0.00 | 0.00 | 0.00 | 10 | 1015.2 |
| 20260509204524 | 91 | 109 | 2.0 | 5.0 | 0.00 | 0.00 | 0.00 | 11 | 1015.1 |
| 20260509204018 | 92 | 146 | 2.0 | 6.0 | 0.00 | 0.00 | 0.00 | 11 | 1015.4 |
| 20260509203518 | 92 | 99 | 1.0 | 6.0 | 0.00 | 0.00 | 0.00 | 10 | 1015.5 |
| 20260509203018 | 92 | 94 | 1.0 | 3.0 | 0.00 | 0.00 | 0.00 | 10 | 1015.5 |
| 20260509202516 | 91 | 32 | 1.0 | 4.0 | 0.00 | 0.00 | 0.00 | 10 | 1015.5 |
| 20260509202014 | 92 | 126 | 1.0 | 4.0 | 0.00 | 0.00 | 0.00 | 11 | 1015.6 |
| 20260509201013 | 91 | 65 | 1.0 | 4.0 | 0.00 | 0.00 | 0.00 | 10 | 1015.8 |
| 20260509200513 | 91 | 117 | 1.0 | 3.0 | 0.00 | 0.00 | 0.00 | 10 | 1015.8 |
| 20260509200014 | 91 | 121 | 1.0 | 4.0 | 0.00 | 0.00 | 0.00 | 10 | 1015.9 |
| 20260509195514 | 92 | 138 | 1.0 | 4.0 | 0.00 | 0.00 | 0.00 | 9 | 1015.9 |
| 20260509195016 | 92 | 89 | 2.0 | 6.0 | 0.00 | 0.00 | 0.00 | 9 | 1016.0 |
| 20260509194513 | 93 | 80 | 2.0 | 6.0 | 0.00 | 0.00 | 0.00 | 9 | 1016.0 |
| 20260509194013 | 93 | 15 | 2.0 | 5.0 | 0.00 | 0.00 | 0.00 | 9 | 1016.0 |
| 20260509192512 | 94 | 92 | 2.0 | 3.0 | 0.00 | 0.00 | 0.00 | 9 | 1016.2 |
| 20260509192012 | 94 | 84 | 1.0 | 3.0 | 0.00 | 0.00 | 0.00 | 9 | 1016.4 |
| 20260509191010 | 94 | 78 | 1.0 | 9.0 | 0.00 | 0.00 | 0.00 | 10 | 1016.6 |
| 20260509190513 | 93 | 84 | 1.0 | 9.0 | 0.00 | 0.00 | 0.00 | 10 | 1016.5 |
| 20260509185506 | 93 | 14 | 1.0 | 4.0 | 0.00 | 0.00 | 0.00 | 10 | 1016.7 |
| 20260509185006 | 92 | 105 | 1.0 | 3.0 | 0.00 | 0.00 | 0.00 | 10 | 1016.6 |
| 20260509184004 | 92 | 47 | 1.0 | 7.0 | 0.00 | 0.00 | 0.00 | 10 | 1016.8 |
| 20260509183504 | 91 | 77 | 1.0 | 6.0 | 0.00 | 0.00 | 0.00 | 10 | 1016.8 |
| 20260509182504 | 90 | 113 | 1.0 | 3.0 | 0.00 | 0.00 | 0.00 | 11 | 1017.2 |
| 20260509182004 | 89 | 107 | 1.0 | 3.0 | 0.00 | 0.00 | 0.00 | 12 | 1017.2 |
| 20260509181504 | 89 | 97 | 2.0 | 3.0 | 0.00 | 0.00 | 0.00 | 11 | 1017.3 |
| 20260509180502 | 89 | 63 | 1.0 | 3.0 | 0.00 | 0.00 | 0.00 | 11 | 1017.3 |
| 20260509175500 | 89 | 19 | 1.0 | 3.0 | 0.00 | 0.00 | 0.00 | 12 | 1017.5 |
| 20260509174959 | 88 | 109 | 1.0 | 3.0 | 0.00 | 0.00 | 0.00 | 12 | 1017.5 |
| 20260509174455 | 88 | 111 | 1.0 | 3.0 | 0.00 | 0.00 | 0.00 | 12 | 1017.6 |
| 20260509173956 | 87 | 110 | 1.0 | 3.0 | 0.00 | 0.00 | 0.00 | 12 | 1017.6 |
| 20260509173457 | 87 | 152 | 1.0 | 3.0 | 0.00 | 0.00 | 0.00 | 13 | 1017.6 |
| 20260509172954 | 86 | 84 | 1.0 | 3.0 | 0.00 | 0.00 | 0.00 | 12 | 1017.6 |
| 20260509172454 | 86 | 16 | 0.0 | 2.0 | 0.00 | 0.00 | 0.00 | 11 | 1017.7 |
| 20260509171953 | 85 | 60 | 0.0 | 2.0 | 0.00 | 0.00 | 0.00 | 13 | 1017.7 |
| 20260509171454 | 85 | 86 | 1.0 | 2.0 | 0.00 | 0.00 | 0.00 | 12 | 1017.7 |
| 20260509170954 | 85 | 82 | 1.0 | 3.0 | 0.00 | 0.00 | 0.00 | 13 | 1017.9 |
| 20260509170454 | 85 | 98 | 0.0 | 3.0 | 0.00 | 0.00 | 0.00 | 12 | 1017.9 |
| 20260509165954 | 84 | 145 | 1.0 | 3.0 | 0.00 | 0.00 | 0.00 | 13 | 1017.9 |
| 20260509165454 | 84 | 109 | 1.0 | 3.0 | 0.00 | 0.00 | 0.00 | 13 | 1017.9 |
| 20260509164954 | 84 | 101 | 0.0 | 2.0 | 0.00 | 0.00 | 0.00 | 13 | 1017.9 |
| 20260509164454 | 83 | 92 | 0.0 | 2.0 | 0.00 | 0.00 | 0.00 | 13 | 1017.9 |
| 20260509163954 | 83 | 72 | 0.0 | 2.0 | 0.00 | 0.00 | 0.00 | 15 | 1017.9 |
| 20260509163454 | 82 | 92 | 1.0 | 3.0 | 0.00 | 0.00 | 0.00 | 14 | 1018.0 |
| 20260509162952 | 81 | 5 | 0.0 | 3.0 | 0.00 | 0.00 | 0.00 | 14 | 1017.9 |
| 20260509162452 | 81 | 66 | 0.0 | 2.0 | 0.00 | 0.00 | 0.00 | 15 | 1017.9 |
| 20260509161950 | 80 | 28 | 0.0 | 2.0 | 0.00 | 0.00 | 0.00 | 14 | 1018.0 |
| 20260509161450 | 80 | 60 | 0.0 | 2.0 | 0.00 | 0.00 | 0.00 | 14 | 1018.0 |
| 20260509160950 | 80 | 50 | 0.0 | 1.0 | 0.00 | 0.00 | 0.00 | 14 | 1018.0 |
| 20260509160450 | 80 | 30 | 0.0 | 1.0 | 0.00 | 0.00 | 0.00 | 15 | 1018.1 |
| 20260509155950 | 79 | 29 | 0.0 | 0.0 | 0.00 | 0.00 | 0.00 | 15 | 1018.1 |
| 20260509155451 | 79 | 66 | 0.0 | 2.0 | 0.00 | 0.00 | 0.00 | 15 | 1018.1 |
| 20260509154949 | 78 | 26 | 0.0 | 2.0 | 0.00 | 0.00 | 0.00 | 15 | 1018.1 |
| 20260509154448 | 78 | 59 | 0.0 | 0.0 | 0.00 | 0.00 | 0.00 | 16 | 1018.1 |
| 20260509153946 | 78 | 355 | 0.0 | 0.0 | 0.00 | 0.00 | 0.00 | 15 | 1018.0 |
| 20260509153446 | 77 | 351 | 0.0 | 1.0 | 0.00 | 0.00 | 0.00 | 16 | 1018.1 |
| 20260509152943 | 76 | 347 | 0.0 | 2.0 | 0.00 | 0.00 | 0.00 | 16 | 1018.1 |
| 20260509152444 | 76 | 346 | 0.0 | 2.0 | 0.00 | 0.00 | 0.00 | 16 | 1018.1 |
| 20260509151940 | 76 | 344 | 0.0 | 1.0 | 0.00 | 0.00 | 0.00 | 17 | 1018.1 |
| 20260509150438 | 75 | 250 | 0.0 | 0.0 | 0.00 | 0.00 | 0.00 | 18 | 1018.1 |
| 20260509145941 | 75 | 250 | 0.0 | 0.0 | 0.00 | 0.00 | 0.00 | 17 | 1018.2 |
| 20260509145438 | 74 | 250 | 0.0 | 0.0 | 0.00 | 0.00 | 0.00 | 19 | 1018.1 |
| 20260509144936 | 74 | 251 | 0.0 | 0.0 | 0.00 | 0.00 | 0.00 | 18 | 1018.1 |
| 20260509144435 | 74 | 251 | 0.0 | 0.0 | 0.00 | 0.00 | 0.00 | 19 | 1018.1 |
| 20260509143933 | 74 | 223 | 0.0 | 0.0 | 0.00 | 0.00 | 0.00 | 19 | 1018.0 |
| 20260509143434 | 73 | 223 | 0.0 | 0.0 | 0.00 | 0.00 | 0.00 | 18 | 1018.1 |
| 20260509142928 | 73 | 223 | 0.0 | 0.0 | 0.00 | 0.00 | 0.00 | 19 | 1018.1 |
| 20260509142426 | 72 | 223 | 0.0 | 0.0 | 0.00 | 0.00 | 0.00 | 20 | 1018.0 |
| 20260509141926 | 72 | 223 | 0.0 | 0.0 | 0.00 | 0.00 | 0.00 | 20 | 1018.1 |
| 20260509141424 | 71 | 223 | 0.0 | 0.0 | 0.00 | 0.00 | 0.00 | 21 | 1018.0 |
| 20260509140921 | 70 | 223 | 0.0 | 0.0 | 0.00 | 0.00 | 0.00 | 23 | 1018.0 |
| 20260509140421 | 68 | 223 | 0.0 | 0.0 | 0.00 | 0.00 | 0.00 | 21 | 1017.9 |
| 20260509135919 | 67 | 223 | 0.0 | 0.0 | 0.00 | 0.00 | 0.00 | 24 | 1017.9 |
| 20260509135420 | 67 | 223 | 0.0 | 0.0 | 0.00 | 0.00 | 0.00 | 24 | 1017.7 |
| 20260509134918 | 66 | 223 | 0.0 | 0.0 | 0.00 | 0.00 | 0.00 | 24 | 1017.7 |
| 20260509134421 | 65 | 223 | 0.0 | 0.0 | 0.00 | 0.00 | 0.00 | 24 | 1017.7 |
| 20260509133915 | 65 | 223 | 0.0 | 0.0 | 0.00 | 0.00 | 0.00 | 26 | 1017.6 |
| 20260509132412 | 64 | 223 | 0.0 | 0.0 | 0.00 | 0.00 | 0.00 | 26 | 1017.5 |
| 20260509131910 | 63 | 223 | 0.0 | 0.0 | 0.00 | 0.00 | 0.00 | 25 | 1017.4 |
| 20260509130908 | 63 | 223 | 0.0 | 0.0 | 0.00 | 0.00 | 0.00 | 25 | 1017.3 |
| 20260509125406 | 63 | 207 | 0.0 | 0.0 | 0.00 | 0.00 | 0.00 | 23 | 1017.3 |
| 20260509124906 | 63 | 207 | 0.0 | 0.0 | 0.00 | 0.00 | 0.00 | 22 | 1017.2 |
| 20260509124405 | 64 | 207 | 0.0 | 0.0 | 0.00 | 0.00 | 0.00 | 23 | 1017.1 |
| 20260509123908 | 64 | 207 | 0.0 | 2.0 | 0.00 | 0.00 | 0.00 | 22 | 1016.9 |